Weather Roundup
Issued by NWS Corpus Christi, TX

Home | Current Version | Previous Version | Text Only | Print | Product List | Glossary On
Versions: 1 2 3 4 5 6 7 8 9 10 11 12 13 14 15 16 17 18 19 20 21 22 23 24 25 26 27 28 29 30 31 32 33 34 35 36 37 38 39 40 41 42 43 44 45 46 47 48 49 50
000
ASUS44 KCRP 261210
HRRCRP

SOUTH TEXAS REGIONAL WEATHER ROUNDUP
NATIONAL WEATHER SERVICE CORPUS CHRISTI TX
700 AM CDT MON JUN 26 2017


TXZ229>244-261300-
...CORPUS CHRISTI AREA OBSERVATIONS...

CITY           SKY/WX    TMP DP  RH WIND       PRES   REMARKS
CORPUS CHRISTI CLOUDY    77  74  90 CALM      30.04R
NAS CORPUS CHR CLOUDY    79  76  90 SE9       30.04R
ROCKPORT       CLOUDY    80  74  81 NE5       30.05R
KINGSVILLE NAS PTCLDY    75  75 100 N6        30.04S
ALICE          PTCLDY    74  73  97 N5        30.05R
ORANGE GROVE   CLEAR     76  75  97 N3        30.07R
FALFURRIAS     CLEAR     75  74  95 CALM      30.04R
$$

...VICTORIA AREA OBSERVATIONS...

CITY           SKY/WX    TMP DP  RH WIND       PRES   REMARKS
VICTORIA       CLOUDY    75  73  93 NE5       30.08R FOG
BEEVILLE       FAIR     N/A N/A N/A NE3       30.07S
PLEASANTON     PTCLDY    73  72  98 CALM      30.09F
SAN ANTONIO    MOCLDY    74  70  87 E3        30.11S
$$

...LAREDO AREA OBSERVATIONS...

CITY           SKY/WX    TMP DP  RH WIND       PRES   REMARKS
LAREDO         CLOUDY    73  73 100 NE9       30.07S VSB 3/4
COTULLA        CLOUDY    73  72  96 E6        30.07F FOG
DEL RIO        CLOUDY    73  70  90 E7        30.09R
MCALLEN        CLEAR     79  75  87 N3        30.02S
HEBBRONVILLE   CLOUDY    74  72  95 CALM      30.08R FOG
$$

...OTHER TEXAS OBSERVATIONS...

CITY           SKY/WX    TMP DP  RH WIND       PRES   REMARKS
BROWNSVILLE    CLEAR     75  74  96 N3        30.01R
HOUSTON        CLOUDY    74  70  87 NE6       30.10R
COL. STATION   PTCLDY    71  71 100 NE5       30.11R
AUSTIN         MOCLDY    74  72  93 CALM      30.09F
WACO           CLOUDY    74  72  93 E5        30.13R
FORT WORTH     MOCLDY    73  65  75 E5        30.13R
WICHITA FALLS  CLOUDY    68  62  81 E5        30.16S
LUBBOCK        CLOUDY    64  61  90 E6        30.24R
EL PASO        MOCLDY    72  64  76 E3        30.19R
$$

...MARINE OBSERVATIONS...

STATION/POSITION TIME  SKY/WX   TEMP    WIND        PRES    VSBY  WAVE   SWELL
                                AIR SEA DIR/SP/G                  HT/PER HT/PER
                 (UTC)          (F)     (DEG/KT/KT) (MB)    (MI)  (FT/S) (FT/S)
PORT ARANSAS     1200            80 84   CALM  /  1 1017.3R
BUOY 90 E PORT A 1150            81 84   60/  6/  8 1017.6R         3/ 6   2/ 6
BUOY 45 SE BAFFI 1150            82     120/  8/ 10 1015.7R         3/ 5   3/ 5
BUOY 200 E PT IS 1150            81 83   70/  6/  8 1017.0R         3/ 6   3/ 6
BUOY 15 E GALVES 1050            82 84   60/ 10/ 10 1017.9          2/ 4   2/ 5
$$




USA.gov is the U.S. government's official web portal to all federal, state and local government web resources and services.